Kugluktuk, Nunavut

6:44 AM MDT on March 24, 2017 (GMT -0600)
Kugluktuk

Weather History for CYCO - March, 2013

Change the Weather History Date:

Thursday, March 28, 2013

  Actual Average Record
Temperature  
Mean Temperature -1 °F -  
Max Temperature 2 °F 9 °F 14 °F (2011)
Min Temperature -4 °F -3 °F -36 °F (1997)
Degree Days  
Heating Degree Days 66    
Moisture  
Dew Point -5 °F    
Average Humidity 74    
Maximum Humidity 85    
Minimum Humidity 55    
Precipitation  
Precipitation 0.00 in - - ()
Sea Level Pressure  
Sea Level Pressure 29.99 in    
Wind  
Wind Speed 15 mph ()    
Max Wind Speed 22 mph    
Max Gust Speed 30 mph    
Visibility 10.5 miles    
Events Snow    
Averages and records for this station are not official NWS values.
T = Trace of Precipitation, MM = Missing Value Source: Averaged Metar Reports

Daily Weather History Graph

Daily Weather History Graph

Search for Another Location

Airport or City:

Trip Planner

Search our weather history database for the weather conditions in past years. The results will help you decide how hot, cold, wet, or windy it might be!

Date:

Astronomy

Mar. 28, 2013 Rise Set
Actual Time 7:05 AM MDT 8:27 PM MDT
Civil Twilight 6:08 AM MDT 9:25 PM MDT
Nautical Twilight 4:52 AM MDT 10:42 PM MDT
Astronomical Twilight 2:56 AM MDT 12:47 AM MDT
Moon 11:44 PM MDT (3/28) 6:42 AM MDT (3/28)
Length of Visible Light 15h 17m
Length of Day
13h 22m
Full, 98% of the Moon is Illuminated
Mar 28
Full
Apr 2
Last Quarter
Apr 10
New
Apr 18
First Quarter
Apr 25
Full

Hourly Weather History & Observations

Time (MDT) Temp. Windchill Dew Point Humidity Pressure Visibility Wind Dir Wind Speed Gust Speed Precip Events Conditions
12:00 AM 10 °F - 1 °F 55% 29.92 in 15 mi SSW 17.3 mph - - Snow Low Drifting Snow
12:00 AM 10.4 °F -7.2 °F 1.4 °F 67% 29.92 in 15.0 mi SSW 17.3 mph - N/A Snow Low Drifting Snow
1:00 AM 6.8 °F -8.6 °F 1.4 °F 79% 29.93 in 15.0 mi SSW 11.5 mph 17.3 mph N/A Snow Low Drifting Snow
2:00 AM 6.8 °F -11.8 °F -0.4 °F 72% 29.94 in 15.0 mi SW 17.3 mph 24.2 mph N/A Snow Low Drifting Snow
3:00 AM 5.0 °F -14.2 °F -2.2 °F 72% 29.94 in 15.0 mi SW 17.3 mph 23.0 mph N/A Snow Low Drifting Snow
4:00 AM 3.2 °F -17.6 °F -2.2 °F 78% 29.95 in 15.0 mi SW 19.6 mph 26.5 mph N/A Snow Low Drifting Snow
4:39 AM - - - N/A% - 10.0 mi SW 18.4 mph 25.3 mph N/A   Unknown
5:00 AM 1.4 °F -18.8 °F -4.0 °F 78% 29.95 in 8.0 mi WSW 17.3 mph 23.0 mph N/A Snow Low Drifting Snow
6:00 AM 2 °F - -3 °F 72% 29.96 in 7 mi WSW 20.7 mph - - Snow Snow
6:00 AM 1.4 °F -18.8 °F -2.2 °F 85% 29.96 in 8.0 mi WSW 17.3 mph 23.0 mph N/A Snow Low Drifting Snow
7:00 AM -0.4 °F -21.2 °F -7.6 °F 72% 29.98 in 10.0 mi WSW 17.3 mph - N/A Snow Low Drifting Snow
8:00 AM -2.2 °F -23.5 °F -7.6 °F 78% 29.98 in 15.0 mi WSW 17.3 mph - N/A Snow Low Drifting Snow
9:00 AM -0.4 °F -17.6 °F -7.6 °F 72% 29.99 in 10.0 mi SW 11.5 mph 17.3 mph N/A Snow Low Drifting Snow
10:00 AM -0.4 °F -17.6 °F -7.6 °F 72% 29.99 in 8.0 mi WSW 11.5 mph 19.6 mph N/A Snow Low Drifting Snow
11:00 AM 1.4 °F -16.9 °F -4.0 °F 78% 29.99 in 10.0 mi WSW 13.8 mph 23.0 mph N/A Snow Low Drifting Snow
12:00 PM -0 °F - -6 °F 63% 30.01 in 10 mi WSW 19.6 mph - - Snow Snow
12:00 PM -0.4 °F -19.9 °F -5.8 °F 78% 30.01 in 10.0 mi WSW 15.0 mph 23.0 mph N/A Snow Low Drifting Snow
12:18 PM - - - N/A% - 4.0 mi WSW 16.1 mph 25.3 mph N/A   Ice Crystals
1:00 PM -0.4 °F -19.2 °F -5.8 °F 78% 30.01 in 6.0 mi WSW 13.8 mph 23.0 mph N/A Snow Ice Crystals
2:00 PM -0.4 °F -22.3 °F -5.8 °F 78% 30.01 in 9.0 mi WSW 19.6 mph 29.9 mph N/A Snow Low Drifting Snow
3:00 PM 1.4 °F -16.9 °F -5.8 °F 72% 30.03 in 10.0 mi WSW 13.8 mph 24.2 mph N/A Snow Low Drifting Snow
4:00 PM 1.4 °F -16.9 °F -5.8 °F 72% 30.03 in 8.0 mi WSW 13.8 mph 25.3 mph N/A Snow Low Drifting Snow
5:00 PM -0.4 °F -21.2 °F -5.8 °F 78% 30.03 in 9.0 mi WSW 17.3 mph 26.5 mph N/A Snow Low Drifting Snow
6:00 PM -0 °F - -6 °F 63% 30.03 in 10 mi WSW 21.9 mph - - Snow Snow
6:00 PM -0.4 °F -21.2 °F -5.8 °F 78% 30.03 in 10.0 mi WSW 17.3 mph 26.5 mph N/A Snow Low Drifting Snow
7:00 PM -0.4 °F -22.3 °F -7.6 °F 72% 30.03 in 10.0 mi WSW 19.6 mph 27.6 mph N/A Snow Low Drifting Snow
7:48 PM - - - N/A% - 10.0 mi WSW 17.3 mph 25.3 mph N/A   Unknown
8:00 PM -2.2 °F -21.5 °F -7.6 °F 78% 30.04 in 10.0 mi WSW 13.8 mph 23.0 mph N/A Snow Low Drifting Snow
9:00 PM -4.0 °F -22.1 °F -9.4 °F 78% 30.04 in 15.0 mi WSW 11.5 mph 18.4 mph N/A Snow Low Drifting Snow
10:00 PM -2.2 °F -23.5 °F -7.6 °F 78% 30.05 in 10.0 mi WSW 17.3 mph - N/A Snow Low Drifting Snow
10:44 PM - - - N/A% - 10.0 mi WSW 15.0 mph 21.9 mph N/A   Unknown
11:00 PM -2.2 °F -23.5 °F -9.4 °F 71% 30.04 in 8.0 mi WSW 17.3 mph - N/A Snow Low Drifting Snow